Location: Newark
(51.2625°N, 13.3939°E)
Time: 08:49:42
(UTC+00:00)

Transit 2A Rocket - Pass Details

Date: 24 January 2021
Orbit: 594 x 909 km, 66.7° (Epoch: 24 February)

Event Time Altitude Azimuth Distance (km) Brightness Sun altitude
Rises 19:36:03 0° 321° (NW) 2,950 8.7 -36.0°
Reaches altitude 10° 19:38:23 10° 319° (NW) 2,003 7.7 -36.4°
Enters shadow 19:38:57 13° 319° (NW) 1,779 7.4 -36.4°
